owner,sensor,date,latitude,longitude,air_pressure(mBar),qcFlag 
WAVCIS,ioos:station:WAVCIS:CSI03:1,2009-02-01T00:00:00Z,29.4412,-92.0613,1021.5,11111222 
WAVCIS,ioos:station:WAVCIS:CSI03:1,2009-02-01T01:00:00Z,29.4412,-92.0613,1021.62,11111222 
WAVCIS,ioos:station:WAVCIS:CSI03:1,2009-02-01T02:00:00Z,29.4412,-92.0613,1021.45,11111222 
WAVCIS,ioos:station:WAVCIS:CSI03:1,2009-02-01T03:00:00Z,29.4412,-92.0613,1021.1,11111222 
WAVCIS,ioos:station:WAVCIS:CSI03:1,2009-02-01T04:00:00Z,29.4412,-92.0613,1020.75,11111222 
WAVCIS,ioos:station:WAVCIS:CSI03:1,2009-02-01T05:00:00Z,29.4412,-92.0613,1020.36,11111222 
WAVCIS,ioos:station:WAVCIS:CSI03:1,2009-02-01T06:00:00Z,29.4412,-92.0613,1019.8,11111222 
WAVCIS,ioos:station:WAVCIS:CSI03:1,2009-02-01T07:00:00Z,29.4412,-92.0613,1019.15,11111222 
WAVCIS,ioos:station:WAVCIS:CSI03:1,2009-02-01T08:00:00Z,29.4412,-92.0613,1018.42,11111222 
WAVCIS,ioos:station:WAVCIS:CSI03:1,2009-02-01T09:00:00Z,29.4412,-92.0613,1017.92,11111222 
WAVCIS,ioos:station:WAVCIS:CSI03:1,2009-02-01T10:00:00Z,29.4412,-92.0613,1017.59,11111222 
WAVCIS,ioos:station:WAVCIS:CSI03:1,2009-02-01T11:00:00Z,29.4412,-92.0613,1017.57,11111222 
WAVCIS,ioos:station:WAVCIS:CSI03:1,2009-02-01T12:00:00Z,29.4412,-92.0613,1017.68,11111222 
WAVCIS,ioos:station:WAVCIS:CSI03:1,2009-02-01T13:00:00Z,29.4412,-92.0613,1017.63,11111222 
WAVCIS,ioos:station:WAVCIS:CSI03:1,2009-02-01T14:00:00Z,29.4412,-92.0613,1017.3,11111222 
WAVCIS,ioos:station:WAVCIS:CSI03:1,2009-02-01T15:00:00Z,29.4412,-92.0613,1017.27,11111222 
WAVCIS,ioos:station:WAVCIS:CSI03:1,2009-02-01T16:00:00Z,29.4412,-92.0613,1017.3,11111222 
WAVCIS,ioos:station:WAVCIS:CSI03:1,2009-02-01T17:00:00Z,29.4412,-92.0613,1016.86,11111222 
WAVCIS,ioos:station:WAVCIS:CSI03:1,2009-02-01T18:00:00Z,29.4412,-92.0613,1015.6,11111222 
WAVCIS,ioos:station:WAVCIS:CSI03:1,2009-02-01T19:00:00Z,29.4412,-92.0613,1014.4,11111222 
WAVCIS,ioos:station:WAVCIS:CSI03:1,2009-02-01T20:00:00Z,29.4412,-92.0613,1013.5,11111222 
WAVCIS,ioos:station:WAVCIS:CSI03:1,2009-02-01T21:00:00Z,29.4412,-92.0613,1013.13,11111222 
WAVCIS,ioos:station:WAVCIS:CSI03:1,2009-02-01T22:00:00Z,29.4412,-92.0613,1013.13,11111222 
WAVCIS,ioos:station:WAVCIS:CSI03:1,2009-02-01T23:00:00Z,29.4412,-92.0613,1012.87,11111222 
WAVCIS,ioos:station:WAVCIS:CSI03:1,2009-02-02T00:00:00Z,29.4412,-92.0613,1012.4,11111222 
WAVCIS,ioos:station:WAVCIS:CSI03:1,2009-02-02T01:00:00Z,29.4412,-92.0613,1012.26,11111222 
WAVCIS,ioos:station:WAVCIS:CSI03:1,2009-02-02T02:00:00Z,29.4412,-92.0613,1012.69,11111222 
WAVCIS,ioos:station:WAVCIS:CSI03:1,2009-02-02T03:00:00Z,29.4412,-92.0613,1012.52,11111222 
WAVCIS,ioos:station:WAVCIS:CSI03:1,2009-02-02T04:00:00Z,29.4412,-92.0613,1012.6,11111222 
WAVCIS,ioos:station:WAVCIS:CSI03:1,2009-02-02T05:00:00Z,29.4412,-92.0613,1012.37,11111222 
WAVCIS,ioos:station:WAVCIS:CSI03:1,2009-02-02T06:00:00Z,29.4412,-92.0613,1012.39,11111222 
WAVCIS,ioos:station:WAVCIS:CSI03:1,2009-02-02T07:00:00Z,29.4412,-92.0613,1012.64,11111222 
WAVCIS,ioos:station:WAVCIS:CSI03:1,2009-02-02T08:00:00Z,29.4412,-92.0613,1012.83,11111222 
WAVCIS,ioos:station:WAVCIS:CSI03:1,2009-02-02T09:00:00Z,29.4412,-92.0613,1011.35,11111222 
WAVCIS,ioos:station:WAVCIS:CSI03:1,2009-02-02T10:00:00Z,29.4412,-92.0613,1011.44,11111222 
WAVCIS,ioos:station:WAVCIS:CSI03:1,2009-02-02T11:00:00Z,29.4412,-92.0613,1011.69,11111222 
WAVCIS,ioos:station:WAVCIS:CSI03:1,2009-02-02T12:00:00Z,29.4412,-92.0613,1013.59,11111222 
WAVCIS,ioos:station:WAVCIS:CSI03:1,2009-02-02T13:00:00Z,29.4412,-92.0613,1013.66,11111222 
WAVCIS,ioos:station:WAVCIS:CSI03:1,2009-02-02T14:00:00Z,29.4412,-92.0613,1013.17,11111222 
WAVCIS,ioos:station:WAVCIS:CSI03:1,2009-02-02T15:00:00Z,29.4412,-92.0613,1015.04,11111222 
WAVCIS,ioos:station:WAVCIS:CSI03:1,2009-02-02T16:00:00Z,29.4412,-92.0613,1015.6,11111222 
WAVCIS,ioos:station:WAVCIS:CSI03:1,2009-02-02T17:00:00Z,29.4412,-92.0613,1015.9,11111222 
WAVCIS,ioos:station:WAVCIS:CSI03:1,2009-02-02T18:00:00Z,29.4412,-92.0613,1015.88,11111222 
WAVCIS,ioos:station:WAVCIS:CSI03:1,2009-02-02T19:00:00Z,29.4412,-92.0613,1015.26,11111222 
WAVCIS,ioos:station:WAVCIS:CSI03:1,2009-02-02T20:00:00Z,29.4412,-92.0613,1015.52,11111222 
WAVCIS,ioos:station:WAVCIS:CSI03:1,2009-02-02T21:00:00Z,29.4412,-92.0613,1015.77,11111222 
WAVCIS,ioos:station:WAVCIS:CSI03:1,2009-02-02T22:00:00Z,29.4412,-92.0613,1016.9,11111222 
WAVCIS,ioos:station:WAVCIS:CSI03:1,2009-02-02T23:00:00Z,29.4412,-92.0613,1017.71,11111222 
WAVCIS,ioos:station:WAVCIS:CSI03:1,2009-02-03T00:00:00Z,29.4412,-92.0613,1018.67,11111222 
WAVCIS,ioos:station:WAVCIS:CSI03:1,2009-02-03T01:00:00Z,29.4412,-92.0613,1019.6,11111222 
WAVCIS,ioos:station:WAVCIS:CSI03:1,2009-02-03T02:00:00Z,29.4412,-92.0613,1020.79,11111222 
WAVCIS,ioos:station:WAVCIS:CSI03:1,2009-02-03T03:00:00Z,29.4412,-92.0613,1021.48,11111222 
WAVCIS,ioos:station:WAVCIS:CSI03:1,2009-02-03T04:00:00Z,29.4412,-92.0613,1021.82,11111222 
WAVCIS,ioos:station:WAVCIS:CSI03:1,2009-02-03T05:00:00Z,29.4412,-92.0613,1022.11,11111222 
WAVCIS,ioos:station:WAVCIS:CSI03:1,2009-02-03T06:00:00Z,29.4412,-92.0613,1022.35,11111222 
WAVCIS,ioos:station:WAVCIS:CSI03:1,2009-02-03T07:00:00Z,29.4412,-92.0613,1022.39,11111222 
WAVCIS,ioos:station:WAVCIS:CSI03:1,2009-02-03T08:00:00Z,29.4412,-92.0613,1022.46,11111222 
WAVCIS,ioos:station:WAVCIS:CSI03:1,2009-02-03T09:00:00Z,29.4412,-92.0613,1022.67,11111222 
WAVCIS,ioos:station:WAVCIS:CSI03:1,2009-02-03T10:00:00Z,29.4412,-92.0613,1022.55,11111222 
WAVCIS,ioos:station:WAVCIS:CSI03:1,2009-02-03T11:00:00Z,29.4412,-92.0613,1022.66,11111222 
WAVCIS,ioos:station:WAVCIS:CSI03:1,2009-02-03T12:00:00Z,29.4412,-92.0613,1022.78,11111222 
WAVCIS,ioos:station:WAVCIS:CSI03:1,2009-02-03T13:00:00Z,29.4412,-92.0613,1023.05,11111222 
WAVCIS,ioos:station:WAVCIS:CSI03:1,2009-02-03T14:00:00Z,29.4412,-92.0613,1023.46,11111222 
WAVCIS,ioos:station:WAVCIS:CSI03:1,2009-02-03T15:00:00Z,29.4412,-92.0613,1023.85,11111222 
WAVCIS,ioos:station:WAVCIS:CSI03:1,2009-02-03T16:00:00Z,29.4412,-92.0613,1024.9,11111222 
WAVCIS,ioos:station:WAVCIS:CSI03:1,2009-02-03T17:00:00Z,29.4412,-92.0613,1024.86,11111222 
WAVCIS,ioos:station:WAVCIS:CSI03:1,2009-02-03T18:00:00Z,29.4412,-92.0613,1024.12,11111222 
WAVCIS,ioos:station:WAVCIS:CSI03:1,2009-02-03T19:00:00Z,29.4412,-92.0613,1023.19,11111222 
WAVCIS,ioos:station:WAVCIS:CSI03:1,2009-02-03T20:00:00Z,29.4412,-92.0613,1022.71,11111222 
WAVCIS,ioos:station:WAVCIS:CSI03:1,2009-02-03T21:00:00Z,29.4412,-92.0613,1022.29,11111222 
WAVCIS,ioos:station:WAVCIS:CSI03:1,2009-02-03T22:00:00Z,29.4412,-92.0613,1022.05,11111222 
WAVCIS,ioos:station:WAVCIS:CSI03:1,2009-02-03T23:00:00Z,29.4412,-92.0613,1022.22,11111222 
WAVCIS,ioos:station:WAVCIS:CSI03:1,2009-02-04T00:00:00Z,29.4412,-92.0613,1022.43,11111222 
WAVCIS,ioos:station:WAVCIS:CSI03:1,2009-02-04T01:00:00Z,29.4412,-92.0613,1022.76,11111222 
WAVCIS,ioos:station:WAVCIS:CSI03:1,2009-02-04T02:00:00Z,29.4412,-92.0613,1023.13,11111222 
WAVCIS,ioos:station:WAVCIS:CSI03:1,2009-02-04T03:00:00Z,29.4412,-92.0613,1023.54,11111222 
WAVCIS,ioos:station:WAVCIS:CSI03:1,2009-02-04T04:00:00Z,29.4412,-92.0613,1024.04,11111222 
WAVCIS,ioos:station:WAVCIS:CSI03:1,2009-02-04T05:00:00Z,29.4412,-92.0613,1024.51,11111222 
WAVCIS,ioos:station:WAVCIS:CSI03:1,2009-02-04T06:00:00Z,29.4412,-92.0613,1024.85,11111222 
WAVCIS,ioos:station:WAVCIS:CSI03:1,2009-02-04T07:00:00Z,29.4412,-92.0613,1025.11,11111222 
WAVCIS,ioos:station:WAVCIS:CSI03:1,2009-02-04T08:00:00Z,29.4412,-92.0613,1025.95,11111222 
WAVCIS,ioos:station:WAVCIS:CSI03:1,2009-02-04T09:00:00Z,29.4412,-92.0613,1026.37,11111222 
WAVCIS,ioos:station:WAVCIS:CSI03:1,2009-02-04T10:00:00Z,29.4412,-92.0613,1026.83,11111222 
WAVCIS,ioos:station:WAVCIS:CSI03:1,2009-02-04T11:00:00Z,29.4412,-92.0613,1027.76,11111222 
WAVCIS,ioos:station:WAVCIS:CSI03:1,2009-02-04T12:00:00Z,29.4412,-92.0613,1028.81,11111222 
WAVCIS,ioos:station:WAVCIS:CSI03:1,2009-02-04T13:00:00Z,29.4412,-92.0613,1030.05,11111222 
WAVCIS,ioos:station:WAVCIS:CSI03:1,2009-02-04T14:00:00Z,29.4412,-92.0613,1030.95,11111222 
WAVCIS,ioos:station:WAVCIS:CSI03:1,2009-02-04T15:00:00Z,29.4412,-92.0613,1031.79,11111222 
WAVCIS,ioos:station:WAVCIS:CSI03:1,2009-02-04T16:00:00Z,29.4412,-92.0613,1032.62,11111222 
WAVCIS,ioos:station:WAVCIS:CSI03:1,2009-02-04T17:00:00Z,29.4412,-92.0613,1033.02,11111222 
WAVCIS,ioos:station:WAVCIS:CSI03:1,2009-02-04T18:00:00Z,29.4412,-92.0613,1032.6,11111222 
WAVCIS,ioos:station:WAVCIS:CSI03:1,2009-02-04T19:00:00Z,29.4412,-92.0613,1032.28,11111222 
WAVCIS,ioos:station:WAVCIS:CSI03:1,2009-02-04T20:00:00Z,29.4412,-92.0613,1032.11,11111222 
WAVCIS,ioos:station:WAVCIS:CSI03:1,2009-02-04T21:00:00Z,29.4412,-92.0613,1031.83,11111222 
WAVCIS,ioos:station:WAVCIS:CSI03:1,2009-02-04T22:00:00Z,29.4412,-92.0613,1031.74,11111222 
WAVCIS,ioos:station:WAVCIS:CSI03:1,2009-02-04T23:00:00Z,29.4412,-92.0613,1031.83,11111222 
WAVCIS,ioos:station:WAVCIS:CSI03:1,2009-02-05T00:00:00Z,29.4412,-92.0613,1032.3,11111222 
WAVCIS,ioos:station:WAVCIS:CSI03:1,2009-02-05T01:00:00Z,29.4412,-92.0613,1032.61,11111222 
WAVCIS,ioos:station:WAVCIS:CSI03:1,2009-02-05T02:00:00Z,29.4412,-92.0613,1032.98,11111222 
WAVCIS,ioos:station:WAVCIS:CSI03:1,2009-02-05T03:00:00Z,29.4412,-92.0613,1033.23,11111222 
WAVCIS,ioos:station:WAVCIS:CSI03:1,2009-02-05T04:00:00Z,29.4412,-92.0613,1033.25,11111222 
WAVCIS,ioos:station:WAVCIS:CSI03:1,2009-02-05T05:00:00Z,29.4412,-92.0613,1033.27,11111222 
WAVCIS,ioos:station:WAVCIS:CSI03:1,2009-02-05T06:00:00Z,29.4412,-92.0613,1033.0,11111222 
WAVCIS,ioos:station:WAVCIS:CSI03:1,2009-02-05T07:00:00Z,29.4412,-92.0613,1032.78,11111222 
WAVCIS,ioos:station:WAVCIS:CSI03:1,2009-02-05T08:00:00Z,29.4412,-92.0613,1032.55,11111222 
WAVCIS,ioos:station:WAVCIS:CSI03:1,2009-02-05T09:00:00Z,29.4412,-92.0613,1032.03,11111222 
WAVCIS,ioos:station:WAVCIS:CSI03:1,2009-02-05T10:00:00Z,29.4412,-92.0613,1031.59,11111222 
WAVCIS,ioos:station:WAVCIS:CSI03:1,2009-02-05T11:00:00Z,29.4412,-92.0613,1031.76,11111222 
WAVCIS,ioos:station:WAVCIS:CSI03:1,2009-02-05T12:00:00Z,29.4412,-92.0613,1032.1,11111222 
WAVCIS,ioos:station:WAVCIS:CSI03:1,2009-02-05T13:00:00Z,29.4412,-92.0613,1032.47,11111222 
WAVCIS,ioos:station:WAVCIS:CSI03:1,2009-02-05T14:00:00Z,29.4412,-92.0613,1032.6,11111222 
WAVCIS,ioos:station:WAVCIS:CSI03:1,2009-02-05T15:00:00Z,29.4412,-92.0613,1033.1,11111222 
WAVCIS,ioos:station:WAVCIS:CSI03:1,2009-02-05T16:00:00Z,29.4412,-92.0613,1033.94,11111222 
WAVCIS,ioos:station:WAVCIS:CSI03:1,2009-02-05T17:00:00Z,29.4412,-92.0613,1034.15,11111222 
WAVCIS,ioos:station:WAVCIS:CSI03:1,2009-02-05T18:00:00Z,29.4412,-92.0613,1033.27,11111222 
WAVCIS,ioos:station:WAVCIS:CSI03:1,2009-02-05T19:00:00Z,29.4412,-92.0613,1032.04,11111222 
WAVCIS,ioos:station:WAVCIS:CSI03:1,2009-02-05T20:00:00Z,29.4412,-92.0613,1031.36,11111222 
WAVCIS,ioos:station:WAVCIS:CSI03:1,2009-02-05T21:00:00Z,29.4412,-92.0613,1030.83,11111222 
WAVCIS,ioos:station:WAVCIS:CSI03:1,2009-02-05T22:00:00Z,29.4412,-92.0613,1030.62,11111222 
WAVCIS,ioos:station:WAVCIS:CSI03:1,2009-02-05T23:00:00Z,29.4412,-92.0613,1030.59,11111222 
WAVCIS,ioos:station:WAVCIS:CSI03:1,2009-02-06T00:00:00Z,29.4412,-92.0613,1030.45,11111222 
WAVCIS,ioos:station:WAVCIS:CSI03:1,2009-02-06T01:00:00Z,29.4412,-92.0613,1030.27,11111222 
WAVCIS,ioos:station:WAVCIS:CSI03:1,2009-02-06T02:00:00Z,29.4412,-92.0613,1030.29,11111222 
WAVCIS,ioos:station:WAVCIS:CSI03:1,2009-02-06T03:00:00Z,29.4412,-92.0613,1030.06,11111222 
WAVCIS,ioos:station:WAVCIS:CSI03:1,2009-02-06T04:00:00Z,29.4412,-92.0613,1030.04,11111222 
WAVCIS,ioos:station:WAVCIS:CSI03:1,2009-02-06T05:00:00Z,29.4412,-92.0613,1029.84,11111222 
WAVCIS,ioos:station:WAVCIS:CSI03:1,2009-02-06T06:00:00Z,29.4412,-92.0613,1029.46,11111222 
WAVCIS,ioos:station:WAVCIS:CSI03:1,2009-02-06T07:00:00Z,29.4412,-92.0613,1029.23,11111222 
WAVCIS,ioos:station:WAVCIS:CSI03:1,2009-02-06T08:00:00Z,29.4412,-92.0613,1028.58,11111222 
WAVCIS,ioos:station:WAVCIS:CSI03:1,2009-02-06T09:00:00Z,29.4412,-92.0613,1028.14,11111222 
WAVCIS,ioos:station:WAVCIS:CSI03:1,2009-02-06T10:00:00Z,29.4412,-92.0613,1027.57,11111222 
WAVCIS,ioos:station:WAVCIS:CSI03:1,2009-02-06T11:00:00Z,29.4412,-92.0613,1027.36,11111222 
WAVCIS,ioos:station:WAVCIS:CSI03:1,2009-02-06T12:00:00Z,29.4412,-92.0613,1027.38,11111222 
WAVCIS,ioos:station:WAVCIS:CSI03:1,2009-02-06T13:00:00Z,29.4412,-92.0613,1027.42,11111222 
WAVCIS,ioos:station:WAVCIS:CSI03:1,2009-02-06T14:00:00Z,29.4412,-92.0613,1027.5,11111222 
WAVCIS,ioos:station:WAVCIS:CSI03:1,2009-02-06T15:00:00Z,29.4412,-92.0613,1027.94,11111222 
WAVCIS,ioos:station:WAVCIS:CSI03:1,2009-02-06T16:00:00Z,29.4412,-92.0613,1028.65,11111222 
WAVCIS,ioos:station:WAVCIS:CSI03:1,2009-02-06T17:00:00Z,29.4412,-92.0613,1028.86,11111222 
WAVCIS,ioos:station:WAVCIS:CSI03:1,2009-02-06T18:00:00Z,29.4412,-92.0613,1028.63,11111222 
WAVCIS,ioos:station:WAVCIS:CSI03:1,2009-02-06T19:00:00Z,29.4412,-92.0613,1027.88,11111222 
WAVCIS,ioos:station:WAVCIS:CSI03:1,2009-02-06T20:00:00Z,29.4412,-92.0613,1027.28,11111222 
WAVCIS,ioos:station:WAVCIS:CSI03:1,2009-02-06T21:00:00Z,29.4412,-92.0613,1026.75,11111222 
WAVCIS,ioos:station:WAVCIS:CSI03:1,2009-02-06T22:00:00Z,29.4412,-92.0613,1026.29,11111222 
WAVCIS,ioos:station:WAVCIS:CSI03:1,2009-02-06T23:00:00Z,29.4412,-92.0613,1026.05,11111222 
WAVCIS,ioos:station:WAVCIS:CSI03:1,2009-02-07T00:00:00Z,29.4412,-92.0613,1026.01,11111222 
WAVCIS,ioos:station:WAVCIS:CSI03:1,2009-02-07T01:00:00Z,29.4412,-92.0613,1025.58,11111222 
WAVCIS,ioos:station:WAVCIS:CSI03:1,2009-02-07T02:00:00Z,29.4412,-92.0613,1025.49,11111222 
WAVCIS,ioos:station:WAVCIS:CSI03:1,2009-02-07T03:00:00Z,29.4412,-92.0613,1025.59,11111222 
WAVCIS,ioos:station:WAVCIS:CSI03:1,2009-02-07T04:00:00Z,29.4412,-92.0613,1025.49,11111222 
WAVCIS,ioos:station:WAVCIS:CSI03:1,2009-02-07T05:00:00Z,29.4412,-92.0613,1025.65,11111222 
WAVCIS,ioos:station:WAVCIS:CSI03:1,2009-02-07T06:00:00Z,29.4412,-92.0613,1025.28,11111222 
WAVCIS,ioos:station:WAVCIS:CSI03:1,2009-02-07T07:00:00Z,29.4412,-92.0613,1025.1,11111222 
WAVCIS,ioos:station:WAVCIS:CSI03:1,2009-02-07T08:00:00Z,29.4412,-92.0613,1024.83,11111222 
WAVCIS,ioos:station:WAVCIS:CSI03:1,2009-02-07T09:00:00Z,29.4412,-92.0613,1025.0,11111222 
WAVCIS,ioos:station:WAVCIS:CSI03:1,2009-02-07T10:00:00Z,29.4412,-92.0613,1024.84,11111222 
WAVCIS,ioos:station:WAVCIS:CSI03:1,2009-02-07T11:00:00Z,29.4412,-92.0613,1024.7,11111222 
WAVCIS,ioos:station:WAVCIS:CSI03:1,2009-02-07T12:00:00Z,29.4412,-92.0613,1024.87,11111222 
WAVCIS,ioos:station:WAVCIS:CSI03:1,2009-02-07T13:00:00Z,29.4412,-92.0613,1025.16,11111222 
WAVCIS,ioos:station:WAVCIS:CSI03:1,2009-02-07T14:00:00Z,29.4412,-92.0613,1025.3,11111222 
WAVCIS,ioos:station:WAVCIS:CSI03:1,2009-02-07T15:00:00Z,29.4412,-92.0613,1026.25,11111222 
WAVCIS,ioos:station:WAVCIS:CSI03:1,2009-02-07T16:00:00Z,29.4412,-92.0613,1027.22,11111222 
WAVCIS,ioos:station:WAVCIS:CSI03:1,2009-02-07T17:00:00Z,29.4412,-92.0613,1026.99,11111222 
WAVCIS,ioos:station:WAVCIS:CSI03:1,2009-02-07T18:00:00Z,29.4412,-92.0613,1026.49,11111222 
WAVCIS,ioos:station:WAVCIS:CSI03:1,2009-02-07T19:00:00Z,29.4412,-92.0613,1025.71,11111222 
WAVCIS,ioos:station:WAVCIS:CSI03:1,2009-02-07T20:00:00Z,29.4412,-92.0613,1025.22,11111222 
WAVCIS,ioos:station:WAVCIS:CSI03:1,2009-02-07T21:00:00Z,29.4412,-92.0613,1025.13,11111222 
WAVCIS,ioos:station:WAVCIS:CSI03:1,2009-02-07T22:00:00Z,29.4412,-92.0613,1025.07,11111222 
WAVCIS,ioos:station:WAVCIS:CSI03:1,2009-02-07T23:00:00Z,29.4412,-92.0613,1025.11,11111222 
WAVCIS,ioos:station:WAVCIS:CSI03:1,2009-02-08T00:00:00Z,29.4412,-92.0613,1024.7,11111222 
WAVCIS,ioos:station:WAVCIS:CSI03:1,2009-02-08T01:00:00Z,29.4412,-92.0613,1025.0,11111222 
WAVCIS,ioos:station:WAVCIS:CSI03:1,2009-02-08T02:00:00Z,29.4412,-92.0613,1024.81,11111222 
WAVCIS,ioos:station:WAVCIS:CSI03:1,2009-02-08T03:00:00Z,29.4412,-92.0613,1024.93,11111222 
WAVCIS,ioos:station:WAVCIS:CSI03:1,2009-02-08T04:00:00Z,29.4412,-92.0613,1024.72,11111222 
WAVCIS,ioos:station:WAVCIS:CSI03:1,2009-02-08T05:00:00Z,29.4412,-92.0613,1024.49,11111222 
WAVCIS,ioos:station:WAVCIS:CSI03:1,2009-02-08T06:00:00Z,29.4412,-92.0613,1024.24,11111222 
WAVCIS,ioos:station:WAVCIS:CSI03:1,2009-02-08T07:00:00Z,29.4412,-92.0613,1024.03,11111222 
WAVCIS,ioos:station:WAVCIS:CSI03:1,2009-02-08T08:00:00Z,29.4412,-92.0613,1023.54,11111222 
WAVCIS,ioos:station:WAVCIS:CSI03:1,2009-02-08T09:00:00Z,29.4412,-92.0613,1023.43,11111222 
WAVCIS,ioos:station:WAVCIS:CSI03:1,2009-02-08T10:00:00Z,29.4412,-92.0613,1023.67,11111222 
WAVCIS,ioos:station:WAVCIS:CSI03:1,2009-02-08T11:00:00Z,29.4412,-92.0613,1023.92,11111222 
WAVCIS,ioos:station:WAVCIS:CSI03:1,2009-02-08T12:00:00Z,29.4412,-92.0613,1024.33,11111222 
WAVCIS,ioos:station:WAVCIS:CSI03:1,2009-02-08T13:00:00Z,29.4412,-92.0613,1024.74,11111222 
WAVCIS,ioos:station:WAVCIS:CSI03:1,2009-02-08T14:00:00Z,29.4412,-92.0613,1025.41,11111222 
WAVCIS,ioos:station:WAVCIS:CSI03:1,2009-02-08T15:00:00Z,29.4412,-92.0613,1025.8,11111222 
WAVCIS,ioos:station:WAVCIS:CSI03:1,2009-02-08T16:00:00Z,29.4412,-92.0613,1026.16,11111222 
WAVCIS,ioos:station:WAVCIS:CSI03:1,2009-02-08T17:00:00Z,29.4412,-92.0613,1025.83,11111222 
WAVCIS,ioos:station:WAVCIS:CSI03:1,2009-02-08T18:00:00Z,29.4412,-92.0613,1025.43,11111222 
WAVCIS,ioos:station:WAVCIS:CSI03:1,2009-02-08T19:00:00Z,29.4412,-92.0613,1024.47,11111222 
WAVCIS,ioos:station:WAVCIS:CSI03:1,2009-02-08T20:00:00Z,29.4412,-92.0613,1024.0,11111222 
WAVCIS,ioos:station:WAVCIS:CSI03:1,2009-02-08T21:00:00Z,29.4412,-92.0613,1023.36,11111222 
WAVCIS,ioos:station:WAVCIS:CSI03:1,2009-02-08T22:00:00Z,29.4412,-92.0613,1022.8,11111222 
WAVCIS,ioos:station:WAVCIS:CSI03:1,2009-02-08T23:00:00Z,29.4412,-92.0613,1022.47,11111222 
WAVCIS,ioos:station:WAVCIS:CSI03:1,2009-02-09T00:00:00Z,29.4412,-92.0613,1021.76,11111222 
WAVCIS,ioos:station:WAVCIS:CSI03:1,2009-02-09T01:00:00Z,29.4412,-92.0613,1021.33,11111222 
WAVCIS,ioos:station:WAVCIS:CSI03:1,2009-02-09T02:00:00Z,29.4412,-92.0613,1020.86,11111222 
WAVCIS,ioos:station:WAVCIS:CSI03:1,2009-02-09T03:00:00Z,29.4412,-92.0613,1020.12,11111222 
WAVCIS,ioos:station:WAVCIS:CSI03:1,2009-02-09T04:00:00Z,29.4412,-92.0613,1019.84,11111222 
WAVCIS,ioos:station:WAVCIS:CSI03:1,2009-02-09T05:00:00Z,29.4412,-92.0613,1019.24,11111222 
WAVCIS,ioos:station:WAVCIS:CSI03:1,2009-02-09T06:00:00Z,29.4412,-92.0613,1018.81,11111222 
WAVCIS,ioos:station:WAVCIS:CSI03:1,2009-02-09T07:00:00Z,29.4412,-92.0613,1018.58,11111222 
WAVCIS,ioos:station:WAVCIS:CSI03:1,2009-02-09T08:00:00Z,29.4412,-92.0613,1018.58,11111222 
WAVCIS,ioos:station:WAVCIS:CSI03:1,2009-02-09T09:00:00Z,29.4412,-92.0613,1017.85,11111222 
WAVCIS,ioos:station:WAVCIS:CSI03:1,2009-02-09T10:00:00Z,29.4412,-92.0613,1017.14,11111222 
WAVCIS,ioos:station:WAVCIS:CSI03:1,2009-02-09T11:00:00Z,29.4412,-92.0613,1017.29,11111222 
WAVCIS,ioos:station:WAVCIS:CSI03:1,2009-02-09T12:00:00Z,29.4412,-92.0613,1017.34,11111222 
WAVCIS,ioos:station:WAVCIS:CSI03:1,2009-02-09T13:00:00Z,29.4412,-92.0613,1017.29,11111222 
WAVCIS,ioos:station:WAVCIS:CSI03:1,2009-02-09T14:00:00Z,29.4412,-92.0613,1017.11,11111222 
WAVCIS,ioos:station:WAVCIS:CSI03:1,2009-02-09T15:00:00Z,29.4412,-92.0613,1018.05,11111222 
WAVCIS,ioos:station:WAVCIS:CSI03:1,2009-02-09T16:00:00Z,29.4412,-92.0613,1018.29,11111222 
WAVCIS,ioos:station:WAVCIS:CSI03:1,2009-02-09T17:00:00Z,29.4412,-92.0613,1018.3,11111222 
WAVCIS,ioos:station:WAVCIS:CSI03:1,2009-02-09T18:00:00Z,29.4412,-92.0613,1018.21,11111222 
WAVCIS,ioos:station:WAVCIS:CSI03:1,2009-02-09T19:00:00Z,29.4412,-92.0613,1017.32,11111222 
WAVCIS,ioos:station:WAVCIS:CSI03:1,2009-02-09T20:00:00Z,29.4412,-92.0613,1016.62,11111222 
WAVCIS,ioos:station:WAVCIS:CSI03:1,2009-02-09T21:00:00Z,29.4412,-92.0613,1015.41,11111222 
WAVCIS,ioos:station:WAVCIS:CSI03:1,2009-02-09T22:00:00Z,29.4412,-92.0613,1015.91,11111222 
WAVCIS,ioos:station:WAVCIS:CSI03:1,2009-02-09T23:00:00Z,29.4412,-92.0613,1015.77,11111222 
WAVCIS,ioos:station:WAVCIS:CSI03:1,2009-02-10T00:00:00Z,29.4412,-92.0613,1015.64,11111222 
WAVCIS,ioos:station:WAVCIS:CSI03:1,2009-02-10T01:00:00Z,29.4412,-92.0613,1015.39,11111222 
WAVCIS,ioos:station:WAVCIS:CSI03:1,2009-02-10T02:00:00Z,29.4412,-92.0613,1015.7,11111222 
WAVCIS,ioos:station:WAVCIS:CSI03:1,2009-02-10T03:00:00Z,29.4412,-92.0613,1015.91,11111222 
WAVCIS,ioos:station:WAVCIS:CSI03:1,2009-02-10T04:00:00Z,29.4412,-92.0613,1016.24,11111222 
WAVCIS,ioos:station:WAVCIS:CSI03:1,2009-02-10T05:00:00Z,29.4412,-92.0613,1015.75,11111222 
WAVCIS,ioos:station:WAVCIS:CSI03:1,2009-02-10T06:00:00Z,29.4412,-92.0613,1015.17,11111222 
WAVCIS,ioos:station:WAVCIS:CSI03:1,2009-02-10T07:00:00Z,29.4412,-92.0613,1015.17,11111222 
WAVCIS,ioos:station:WAVCIS:CSI03:1,2009-02-10T08:00:00Z,29.4412,-92.0613,1014.84,11111222 
WAVCIS,ioos:station:WAVCIS:CSI03:1,2009-02-10T09:00:00Z,29.4412,-92.0613,1014.58,11111222 
WAVCIS,ioos:station:WAVCIS:CSI03:1,2009-02-10T10:00:00Z,29.4412,-92.0613,1014.19,11111222 
WAVCIS,ioos:station:WAVCIS:CSI03:1,2009-02-10T11:00:00Z,29.4412,-92.0613,1013.77,11111222 
WAVCIS,ioos:station:WAVCIS:CSI03:1,2009-02-10T12:00:00Z,29.4412,-92.0613,1014.01,11111222 
WAVCIS,ioos:station:WAVCIS:CSI03:1,2009-02-10T13:00:00Z,29.4412,-92.0613,1014.19,11111222 
WAVCIS,ioos:station:WAVCIS:CSI03:1,2009-02-10T14:00:00Z,29.4412,-92.0613,1014.54,11111222 
WAVCIS,ioos:station:WAVCIS:CSI03:1,2009-02-10T15:00:00Z,29.4412,-92.0613,1014.36,11111222 
WAVCIS,ioos:station:WAVCIS:CSI03:1,2009-02-10T16:00:00Z,29.4412,-92.0613,1014.91,11111222 
WAVCIS,ioos:station:WAVCIS:CSI03:1,2009-02-10T17:00:00Z,29.4412,-92.0613,1014.74,11111222 
WAVCIS,ioos:station:WAVCIS:CSI03:1,2009-02-10T18:00:00Z,29.4412,-92.0613,1013.9,11111222 
WAVCIS,ioos:station:WAVCIS:CSI03:1,2009-02-10T19:00:00Z,29.4412,-92.0613,1013.04,11111222 
WAVCIS,ioos:station:WAVCIS:CSI03:1,2009-02-10T20:00:00Z,29.4412,-92.0613,1012.34,11111222 
WAVCIS,ioos:station:WAVCIS:CSI03:1,2009-02-10T21:00:00Z,29.4412,-92.0613,1011.84,11111222 
WAVCIS,ioos:station:WAVCIS:CSI03:1,2009-02-10T22:00:00Z,29.4412,-92.0613,1011.57,11111222 
WAVCIS,ioos:station:WAVCIS:CSI03:1,2009-02-10T23:00:00Z,29.4412,-92.0613,1011.36,11111222 
WAVCIS,ioos:station:WAVCIS:CSI03:1,2009-02-11T00:00:00Z,29.4412,-92.0613,1011.01,11111222 
WAVCIS,ioos:station:WAVCIS:CSI03:1,2009-02-11T01:00:00Z,29.4412,-92.0613,1010.77,11111222 
WAVCIS,ioos:station:WAVCIS:CSI03:1,2009-02-11T02:00:00Z,29.4412,-92.0613,1010.78,11111222 
WAVCIS,ioos:station:WAVCIS:CSI03:1,2009-02-11T03:00:00Z,29.4412,-92.0613,1010.65,11111222 
WAVCIS,ioos:station:WAVCIS:CSI03:1,2009-02-11T04:00:00Z,29.4412,-92.0613,1009.93,11111222 
WAVCIS,ioos:station:WAVCIS:CSI03:1,2009-02-11T05:00:00Z,29.4412,-92.0613,1009.28,11111222 
WAVCIS,ioos:station:WAVCIS:CSI03:1,2009-02-11T06:00:00Z,29.4412,-92.0613,1009.16,11111222 
WAVCIS,ioos:station:WAVCIS:CSI03:1,2009-02-11T07:00:00Z,29.4412,-92.0613,1008.07,11111222 
WAVCIS,ioos:station:WAVCIS:CSI03:1,2009-02-11T08:00:00Z,29.4412,-92.0613,1008.63,11111222 
WAVCIS,ioos:station:WAVCIS:CSI03:1,2009-02-11T09:00:00Z,29.4412,-92.0613,1008.48,11111222 
WAVCIS,ioos:station:WAVCIS:CSI03:1,2009-02-11T10:00:00Z,29.4412,-92.0613,1009.11,11111222 
WAVCIS,ioos:station:WAVCIS:CSI03:1,2009-02-11T11:00:00Z,29.4412,-92.0613,1011.34,11111222 
WAVCIS,ioos:station:WAVCIS:CSI03:1,2009-02-11T12:00:00Z,29.4412,-92.0613,1011.18,11111222 
WAVCIS,ioos:station:WAVCIS:CSI03:1,2009-02-11T13:00:00Z,29.4412,-92.0613,1013.23,11111222 
WAVCIS,ioos:station:WAVCIS:CSI03:1,2009-02-11T14:00:00Z,29.4412,-92.0613,1014.14,11111222 
WAVCIS,ioos:station:WAVCIS:CSI03:1,2009-02-11T15:00:00Z,29.4412,-92.0613,1015.56,11111222 
WAVCIS,ioos:station:WAVCIS:CSI03:1,2009-02-11T16:00:00Z,29.4412,-92.0613,1016.31,11111222 
WAVCIS,ioos:station:WAVCIS:CSI03:1,2009-02-11T17:00:00Z,29.4412,-92.0613,1016.62,11111222 
WAVCIS,ioos:station:WAVCIS:CSI03:1,2009-02-11T18:00:00Z,29.4412,-92.0613,1016.35,11111222 
WAVCIS,ioos:station:WAVCIS:CSI03:1,2009-02-11T19:00:00Z,29.4412,-92.0613,1015.46,11111222 
WAVCIS,ioos:station:WAVCIS:CSI03:1,2009-02-11T20:00:00Z,29.4412,-92.0613,1015.35,11111222 
WAVCIS,ioos:station:WAVCIS:CSI03:1,2009-02-11T21:00:00Z,29.4412,-92.0613,1015.42,11111222 
WAVCIS,ioos:station:WAVCIS:CSI03:1,2009-02-11T22:00:00Z,29.4412,-92.0613,1015.71,11111222 